Regional Weather Roundup
Issued by NWS

Home | Current Version | Previous Version | Graphics & Text | Print | Product List | Glossary On
Versions: 1 2 3 4 5 6 7 8 9 10 11 12 13 14 15 16 17 18 19 20 21 22 23 24 25 26 27 28 29 30 31 32 33 34 35 36 37 38 39 40 41 42 43 44 45 46 47 48 49 50
000
ASUS43 KDTX 220610
RWRMI
MICHIGAN HOURLY REGIONAL WEATHER ROUNDUP
NATIONAL WEATHER SERVICE DETROIT/PONTIAC MI
200 AM EDT WED OCT 22 2014

NOTE: "FAIR" INDICATES FEW OR NO CLOUDS BELOW 12,000 FEET WITH NO
SIGNIFICANT WEATHER AND/OR OBSTRUCTION TO VISIBILITY.

MIZ047>049-052>055-059>063-066>070-074>076-081>083-220700-
SOUTHEAST LOWER MICHIGAN

CITY           SKY/WX    TMP DP  RH WIND       PRES   REMARKS
ADRIAN         CLOUDY    43  36  76 N12       30.23S
6HR MIN TEMP:  43; 6HR MAX TEMP:  45;

ALMA           MOCLDY    35  31  87 N6        30.28S
ANN ARBOR      CLOUDY    44  35  70 N14G21    30.22S
BAD AXE        CLOUDY    43  39  86 NE8       30.25S
6HR MIN TEMP:  43; 6HR MAX TEMP:  44;

DETROIT CITY   CLOUDY    47  38  71 N7        30.21S
6HR MIN TEMP:  47; 6HR MAX TEMP:  47;

DETROIT        CLOUDY    45  38  76 N8        30.21S
6HR MIN TEMP:  45; 6HR MAX TEMP:  45;

FLINT          CLOUDY    43  35  73 N6        30.25S
6HR MIN TEMP:  43; 6HR MAX TEMP:  45;

GROSSE ILE     CLOUDY    46  39  76 N10       30.19S
HILLSDALE      CLOUDY    39  37  94 NW6       30.22F
6HR MIN TEMP:  37; 6HR MAX TEMP:  44;

HOWELL         CLOUDY    41  36  82 N6        30.23S
6HR MIN TEMP:  40; 6HR MAX TEMP:  42;


CITY           SKY/WX    TMP DP  RH WIND       PRES   REMARKS
JACKSON        PTCLDY    37  34  89 CALM      30.24S
6HR MIN TEMP:  36; 6HR MAX TEMP:  43;

LAMBERTVILLE   CLOUDY    45  37  76 N6        30.20F
LANSING        CLOUDY    37  33  85 N6        30.27S
6HR MIN TEMP:  35; 6HR MAX TEMP:  42;

LAPEER         NOT AVBL
MASON          CLEAR     35  33  91 N5        30.25S
MONROE         CLOUDY    45  37  76 N7        30.19S
MT. CLEMENS    CLOUDY    46  41  85 N9        30.19R
6HR MIN TEMP:  44; 6HR MAX TEMP:  46;

PONTIAC        CLOUDY    43  36  76 N8        30.21S
6HR MIN TEMP:  42; 6HR MAX TEMP:  43;

PORT HOPE        N/A     46  39  76 NE16      30.24S
6HR MIN TEMP:  46; 6HR MAX TEMP:  46;

PORT HURON     CLOUDY    46  41  81 N9        30.21R
TRI CITIES     CLOUDY    42  34  73 N7        30.28S
6HR MIN TEMP:  40; 6HR MAX TEMP:  45;

YPSILANTI      CLOUDY    48  37  65 N9        30.22S
6HR MIN TEMP:  48; 6HR MAX TEMP:  48;

$$
MIZ043>046-050>051-056>058-064>065-071>073-077>080-220700-
SOUTHWEST LOWER MICHIGAN

CITY           SKY/WX    TMP DP  RH WIND       PRES   REMARKS
BATTLE CREEK   CLEAR     36  32  85 CALM      30.26S
6HR MIN TEMP:  33; 6HR MAX TEMP:  43;

BENTON HARBOR  CLEAR     31  30  96 CALM      30.26R
6HR MIN TEMP:  30; 6HR MAX TEMP:  41;

BIG RAPIDS     CLEAR     30  30 100 W3        30.29R
6HR MIN TEMP:  30; 6HR MAX TEMP:  43;

COLDWATER      CLEAR     38  35  89 N5        30.25R
6HR MIN TEMP:  38; 6HR MAX TEMP:  47;

HOLLAND        CLEAR     38  34  85 E3        30.28S
6HR MIN TEMP:  37; 6HR MAX TEMP:  44;

GRAND RAPIDS   CLEAR     36  33  89 NE5       30.28S
6HR MIN TEMP:  35; 6HR MAX TEMP:  46;

KALAMAZOO      CLEAR     34  32  92 N3        30.27S
6HR MIN TEMP:  33; 6HR MAX TEMP:  43;

MARSHALL       CLEAR     32  32  99 CALM      30.25S
MUSKEGON       CLEAR     37  31  78 NE7       30.29R
6HR MIN TEMP:  37; 6HR MAX TEMP:  47;

$$
MIZ016>042-220700-
NORTHERN LOWER MICHIGAN

CITY           SKY/WX    TMP DP  RH WIND       PRES   REMARKS
ALPENA         CLOUDY    39  33  79 NE6       30.31S
6HR MIN TEMP:  30; 6HR MAX TEMP:  39;

BEAVER ISLAND  CLEAR     37  33  87 E3        30.32R
6HR MIN TEMP:  29; 6HR MAX TEMP:  40;

BELLAIRE       CLEAR     29  27  95 CALM      30.33R
CADILLAC       CLEAR     26  25  98 CALM      30.28S
CHARLEVOIX     CLEAR     38  34  84 E7        30.34S
6HR MIN TEMP:  31; 6HR MAX TEMP:  43;

FRANKFORT      CLEAR     30  27  89 NW3       30.31R
GAYLORD        CLEAR     26  24  92 CALM      30.30R
6HR MIN TEMP:  26; 6HR MAX TEMP:  37;

GRAYLING       CLEAR     24  24  99 CALM      30.31R
6HR MIN TEMP:  24; 6HR MAX TEMP:  35;

HARBOR SPRINGS CLEAR     31  29  92 NE5       30.32S
HOUGHTON LAKE  CLEAR     27  25  92 CALM      30.30R
6HR MIN TEMP:  26; 6HR MAX TEMP:  39;

MANISTEE       CLEAR     28  27  93 CALM      30.31R
OSCODA         CLOUDY    42  36  78 NE10G16   30.28S
PELLSTON       CLEAR     26  24  92 E5        30.33S
6HR MIN TEMP:  25; 6HR MAX TEMP:  35;

TRAVERSE CITY  CLEAR     31  28  89 CALM      30.31S
6HR MIN TEMP:  31; 6HR MAX TEMP:  45;

$$
MIZ007>008-015-220700-
EASTERN UPPER MICHIGAN

CITY           SKY/WX    TMP DP  RH WIND       PRES   REMARKS
KINROSS        MOCLDY    34  30  86 E7        30.34S
6HR MIN TEMP:  32; 6HR MAX TEMP:  39;

MACKINAC ISLAN MOCLDY    38  32  79 E8        30.33S
6HR MIN TEMP:  38; 6HR MAX TEMP:  41;

NEWBERRY       CLEAR     30  28  93 E5        30.34R
S. S. MARIE    CLEAR     32  27  81 E5        30.35R
6HR MIN TEMP:  32; 6HR MAX TEMP:  41;

$$
MIZ004>006-011>014-085-220700-
CENTRAL UPPER MICHIGAN

CITY           SKY/WX    TMP DP  RH WIND       PRES   REMARKS
MANISTIQUE     PTCLDY    28  27  97 CALM      30.32S
ESCANABA       PTCLDY    28  27  93 NW3       30.32R
6HR MIN TEMP:  28; 6HR MAX TEMP:  39;

MENOMINEE      PTCLDY    32  28  86 NW5       30.31R
6HR MIN TEMP:  30; 6HR MAX TEMP:  45;

SAWYER-GWINN   PTCLDY    25  24  95 CALM      30.31R
$$
MIZ001>003-009>011-084-220700-
WESTERN UPPER MICHIGAN

CITY           SKY/WX    TMP DP  RH WIND       PRES   REMARKS
IRON MOUNTAIN  PTCLDY    25  22  88 CALM      30.31R
6HR MIN TEMP:  24; 6HR MAX TEMP:  43;

HOUGHTON       CLEAR     34  31  88 SE7       30.29R
6HR MIN TEMP:  33; 6HR MAX TEMP:  37;

COPPER HARBOR    N/A     39  33  79 CALM      30.30R
6HR MIN TEMP:  33; 6HR MAX TEMP:  39;

IRONWOOD       CLEAR     39  34  81 SE6       30.23S
6HR MIN TEMP:  30; 6HR MAX TEMP:  39;

$$

ABBREVIATIONS USED IN REMARKS
   TC - TEMPERATURE IN CELSIUS
  WCI - WIND CHILL INDEX
   HX - HEAT INDEX
  VSB - VISIBILITY




USA.gov is the U.S. government's official web portal to all federal, state and local government web resources and services.